Meteo pe oră la Abanilla

Astăzi, 5 August, Joi

Timp Temperatura Precipitaţii Vânt Presiune Umiditate
00:00 +27°C° 0 mm 1 m/s 740 mmHg 50%
01:00 +26°C° 0 mm 1 m/s 740 mmHg 54%
02:00 +26°C° 0 mm 1 m/s 740 mmHg 57%
03:00 +25°C° 0 mm 1 m/s 739 mmHg 61%
04:00 +25°C° 0 mm 1 m/s 740 mmHg 64%
05:00 +25°C° 0 mm 2 m/s 740 mmHg 66%
06:00 +25°C° 0 mm 2 m/s 740 mmHg 69%
07:00 +26°C° 0 mm 2 m/s 740 mmHg 63%
08:00 +28°C° 0 mm 2 m/s 740 mmHg 57%
09:00 +30°C° 0 mm 2 m/s 741 mmHg 51%
10:00 +31°C° 0 mm 2 m/s 740 mmHg 46%
11:00 +34°C° 0 mm 3 m/s 740 mmHg 40%
12:00 +35°C° 0 mm 3 m/s 740 mmHg 34%
13:00 +36°C° 0 mm 4 m/s 739 mmHg 33%
14:00 +36°C° 0 mm 4 m/s 739 mmHg 32%
15:00 +37°C° 0 mm 5 m/s 738 mmHg 31%
16:00 +36°C° 0 mm 4 m/s 738 mmHg 34%
17:00 +35°C° 0 mm 4 m/s 738 mmHg 37%
18:00 +33°C° 0 mm 4 m/s 737 mmHg 40%
19:00 +31°C° 0 mm 3 m/s 738 mmHg 45%
20:00 +29°C° 0 mm 2 m/s 738 mmHg 51%
21:00 +28°C° 0 mm 1 m/s 738 mmHg 56%
22:00 +27°C° 0 mm 1 m/s 738 mmHg 58%
23:00 +27°C° 0 mm 1 m/s 738 mmHg 60%

Mâine, 6 August, Vineri

Timp Temperatura Precipitaţii Vânt Presiune Umiditate
00:00 +24°C° 0 mm 0 m/s 737 mmHg 62%
01:00 +26°C° 0 mm 1 m/s 737 mmHg 61%
02:00 +26°C° 0 mm 1 m/s 737 mmHg 61%
03:00 +25°C° 0 mm 1 m/s 736 mmHg 60%
04:00 +26°C° 0 mm 1 m/s 736 mmHg 57%
05:00 +26°C° 0 mm 1 m/s 736 mmHg 55%
06:00 +27°C° 0 mm 1 m/s 736 mmHg 52%
07:00 +29°C° 0 mm 1 m/s 737 mmHg 43%
08:00 +32°C° 0 mm 1 m/s 737 mmHg 35%
09:00 +32°C° 0 mm 0 m/s 737 mmHg 26%
10:00 +36°C° 0 mm 2 m/s 737 mmHg 27%
11:00 +37°C° 0 mm 4 m/s 736 mmHg 27%
12:00 +39°C° 0 mm 5 m/s 736 mmHg 27%
13:00 +37°C° 0 mm 5 m/s 736 mmHg 30%
14:00 +36°C° 0 mm 5 m/s 735 mmHg 33%
15:00 +36°C° 0 mm 5 m/s 735 mmHg 37%
16:00 +35°C° 0 mm 5 m/s 735 mmHg 41%
17:00 +33°C° 0 mm 4 m/s 735 mmHg 44%
18:00 +31°C° 0 mm 3 m/s 734 mmHg 48%
19:00 +30°C° 0 mm 3 m/s 734 mmHg 54%
20:00 +28°C° 0 mm 2 m/s 734 mmHg 61%
21:00 +27°C° 0 mm 1 m/s 735 mmHg 67%
22:00 +27°C° 0 mm 1 m/s 734 mmHg 68%
23:00 +24°C° 0 mm 0 m/s 734 mmHg 69%

Poimâine, 7 August, Sâmbătă

Timp Temperatura Precipitaţii Vânt Presiune Umiditate
00:00 +24°C° 0 mm 0 m/s 734 mmHg 70%
01:00 +23°C° 0 mm 0 m/s 734 mmHg 69%
02:00 +23°C° 0 mm 0 m/s 734 mmHg 69%
03:00 +25°C° 0 mm 1 m/s 733 mmHg 68%
04:00 +25°C° 0 mm 1 m/s 733 mmHg 63%
05:00 +26°C° 0 mm 1 m/s 734 mmHg 57%
06:00 +26°C° 0 mm 1 m/s 734 mmHg 51%
07:00 +29°C° 0 mm 1 m/s 734 mmHg 42%
08:00 +31°C° 0 mm 1 m/s 734 mmHg 33%
09:00 +34°C° 0 mm 2 m/s 734 mmHg 24%
10:00 +36°C° 0 mm 2 m/s 734 mmHg 21%
11:00 +37°C° 0 mm 2 m/s 734 mmHg 19%
12:00 +38°C° 0 mm 3 m/s 734 mmHg 16%
13:00 +38°C° 0 mm 4 m/s 734 mmHg 18%
14:00 +40°C° 0 mm 5 m/s 734 mmHg 20%
15:00 +40°C° 0 mm 5 m/s 734 mmHg 23%
16:00 +38°C° 0 mm 4 m/s 734 mmHg 25%
17:00 +36°C° 0 mm 4 m/s 734 mmHg 28%
18:00 +35°C° 0 mm 3 m/s 734 mmHg 30%
19:00 +34°C° 0 mm 2 m/s 735 mmHg 33%
20:00 +31°C° 0 mm 2 m/s 735 mmHg 37%
21:00 +30°C° 0 mm 1 m/s 736 mmHg 40%
22:00 +29°C° 0 mm 2 m/s 736 mmHg 38%
23:00 +29°C° 0 mm 2 m/s 736 mmHg 35%

8 August, Duminică

Timp Temperatura Precipitaţii Vânt Presiune Umiditate
00:00 +28°C° 0 mm 2 m/s 736 mmHg 33%
01:00 +28°C° 0 mm 2 m/s 736 mmHg 31%
02:00 +27°C° 0 mm 2 m/s 736 mmHg 30%
03:00 +27°C° 0 mm 2 m/s 736 mmHg 28%
04:00 +27°C° 0 mm 3 m/s 737 mmHg 29%
05:00 +26°C° 0 mm 3 m/s 737 mmHg 29%
06:00 +26°C° 0 mm 3 m/s 737 mmHg 30%
07:00 +27°C° 0 mm 3 m/s 738 mmHg 34%
08:00 +29°C° 0 mm 2 m/s 738 mmHg 38%
09:00 +30°C° 0 mm 2 m/s 739 mmHg 43%
10:00 +31°C° 0 mm 3 m/s 739 mmHg 40%
11:00 +34°C° 0 mm 4 m/s 739 mmHg 37%
12:00 +35°C° 0 mm 4 m/s 739 mmHg 34%
13:00 +34°C° 0 mm 5 m/s 739 mmHg 40%
14:00 +34°C° 0 mm 6 m/s 739 mmHg 46%
15:00 +33°C° 0 mm 8 m/s 739 mmHg 52%
16:00 +32°C° 0 mm 7 m/s 739 mmHg 57%
17:00 +29°C° 0 mm 6 m/s 740 mmHg 62%
18:00 +28°C° 0 mm 6 m/s 740 mmHg 67%
19:00 +27°C° 0 mm 5 m/s 740 mmHg 71%
20:00 +27°C° 0 mm 4 m/s 741 mmHg 74%
21:00 +26°C° 0 mm 3 m/s 741 mmHg 78%
22:00 +25°C° 0 mm 3 m/s 741 mmHg 80%
23:00 +25°C° 0 mm 3 m/s 742 mmHg 82%

9 August, Luni

Timp Temperatura Precipitaţii Vânt Presiune Umiditate
00:00 +25°C° 0 mm 3 m/s 742 mmHg 84%
01:00 +25°C° 0 mm 2 m/s 742 mmHg 84%
02:00 +24°C° 0 mm 2 m/s 742 mmHg 85%
03:00 +24°C° 0 mm 2 m/s 742 mmHg 86%
04:00 +24°C° 0 mm 2 m/s 742 mmHg 85%
05:00 +24°C° 0 mm 2 m/s 742 mmHg 83%
06:00 +25°C° 0 mm 2 m/s 742 mmHg 82%
07:00 +26°C° 0 mm 3 m/s 743 mmHg 75%
08:00 +27°C° 0 mm 3 m/s 743 mmHg 68%
09:00 +28°C° 0 mm 4 m/s 743 mmHg 61%
10:00 +29°C° 0 mm 4 m/s 743 mmHg 56%
11:00 +30°C° 0 mm 5 m/s 743 mmHg 52%
12:00 +32°C° 0 mm 6 m/s 743 mmHg 48%
13:00 +32°C° 0 mm 6 m/s 743 mmHg 48%
14:00 +32°C° 0 mm 6 m/s 743 mmHg 49%
15:00 +32°C° 0 mm 6 m/s 743 mmHg 49%
16:00 +30°C° 0 mm 5 m/s 742 mmHg 53%
17:00 +29°C° 0 mm 5 m/s 742 mmHg 57%
18:00 +28°C° 0 mm 5 m/s 742 mmHg 60%
19:00 +28°C° 0 mm 4 m/s 743 mmHg 64%
20:00 +27°C° 0 mm 3 m/s 743 mmHg 67%
21:00 +26°C° 0 mm 3 m/s 744 mmHg 70%
22:00 +25°C° 0 mm 2 m/s 744 mmHg 72%
23:00 +25°C° 0 mm 2 m/s 744 mmHg 73%

10 August, Marţi

Timp Temperatura Precipitaţii Vânt Presiune Umiditate
00:00 +25°C° 0 mm 1 m/s 743 mmHg 75%
01:00 +24°C° 0 mm 1 m/s 743 mmHg 76%
02:00 +24°C° 0 mm 2 m/s 743 mmHg 78%
03:00 +23°C° 0 mm 2 m/s 743 mmHg 79%
04:00 +24°C° 0 mm 2 m/s 743 mmHg 77%
05:00 +24°C° 0 mm 1 m/s 743 mmHg 75%
06:00 +24°C° 0 mm 1 m/s 743 mmHg 73%
07:00 +26°C° 0 mm 1 m/s 743 mmHg 65%
08:00 +27°C° 0 mm 1 m/s 744 mmHg 56%
09:00 +29°C° 0 mm 2 m/s 744 mmHg 48%
10:00 +30°C° 0 mm 3 m/s 744 mmHg 42%
11:00 +33°C° 0 mm 4 m/s 744 mmHg 37%
12:00 +34°C° 0 mm 5 m/s 743 mmHg 31%
13:00 +34°C° 0 mm 5 m/s 743 mmHg 31%
14:00 +34°C° 0 mm 5 m/s 743 mmHg 31%
15:00 +34°C° 0 mm 5 m/s 742 mmHg 31%
16:00 +33°C° 0 mm 5 m/s 742 mmHg 34%
17:00 +32°C° 0 mm 5 m/s 742 mmHg 37%
18:00 +30°C° 0 mm 4 m/s 742 mmHg 41%
19:00 +29°C° 0 mm 4 m/s 742 mmHg 47%
20:00 +28°C° 0 mm 3 m/s 742 mmHg 53%
21:00 +26°C° 0 mm 2 m/s 743 mmHg 58%
22:00 +26°C° 0 mm 2 m/s 743 mmHg 61%
23:00 +25°C° 0 mm 1 m/s 743 mmHg 64%
Arată mai mult

Formular de consimțământ

Meteoprog și furnizorii noștri de servicii pot stoca și accesa date personale, precum cookies, identificatori de dispozitiv sau alte tehnologii similare pe dispozitivul dumneavoastră și procesa astfel de date pentru a personaliza conținutul și reclamele, dar și pentru a oferi caracteristici de social media și pentru a analiza traficul.

  • Stocarea și/sau accesarea informațiilor pe dispozitivul dumneavoastră

    Cookies, identificatori de dispozitiv sau alte informații pot fi stocate sau accesate pe dispozitiv în scopurile indicate mai sus.

  • Reclame și conținut personalizat, evaluarea reclamelor și a conținutului, informații despre audiențe și dezvoltarea produselor

    Reclamele și conținutul pot fi personalizate pe baza unui profil. Pot fi adăugate date suplimentare pentru a personaliza mai bine reclamele și conținutul. Performanța reclamelor și conținutului poate fi măsurată. Pot fi obținute informații despre utilizatorii care au văzut reclamele și conținutul. Aceste date pot fi utilizate pentru a dezvolta sau îmbunătăți experiența utilizatorilor, sistemele și software-ul.

Dând clic pe ‘Sunt de acord’, permiteți utilizarea cookie-urilor menționate, a identificatorilor de dispozitiv, balizelor web sau altor tehnologii similare. Setările pot fi modificate din browser-ul dispozitivului dumneavoastră.

În anumite scopuri, interesele legitime pot prima asupra consimțământului. Puteți citi mai multe informații în acest sens în Politica privind Confidențialitatea Datelor și Cookie.